Location: Camp at the Woods
(43.2055°N, 93.0905°W)
Time: 06:30:30
(UTC+00:00)

Helios 1A - Pass Details

Date: 05 December 2023
Orbit: 569 x 584 km, 98.3° (Epoch: 26 February)

Event Time Altitude Azimuth Distance (km) Brightness Sun altitude
Exits shadow 23:21:39 - 27° (NNE) 2,469 5.7 -8.1°
Reaches altitude 10° 23:23:08 10° 35° (NE) 1,921 5.1 -8.3°
Maximum altitude 23:26:47 29° 97° (E) 1,083 3.8 -8.9°
Drops below altitude 10° 23:30:23 10° 158° (SSE) 1,898 5.6 -9.5°
Sets 23:32:44 0° 169° (S) 2,789 6.6 -9.9°
